STARLINK-35499 (66462 NORAD) Tracking and Keplerian Element Data

This shows tracking and keplerian element data for the satellite.

Feedback or suggestion? Click here.




ElementValue
Catalog66462
NameSTARLINK-35499
Epoch Orbit670
Epoch Day354.1543918
Epoch Year2025
RAAN28.7084
Inclination43
Eccentricity0.0001203
Argument of Perigee236.5348
Mean Anonmoly123.5394
Mean Motion15.40726375
Decay Rate0.00026879
L11 66462U 25262G 25354.15439180 .00026879 00000+0 64787-3 0 9997
L22 66462 43.0000 28.7084 0001203 236.5348 123.5394 15.40726375 6709



Live tracking and technical data element details for STARLINK-35499 (NORAD 66462). STARLINK-35499 can be tracked NOW for your location showing map with azimuth and elevation plus other details from your city location.







IsCatalogInMostPopularTable: catalog: 66462, numindb: 12
Update: records affected: 1



GetName: 66462 STARLINK-35499

Hit Count: updated at: Wed, 15 Apr 2026 01:41:36 GMT